"read_dt","SO2 (ppb)","flags","PMT voltage (V)","lamp voltage (V)","lamp intensity (Hz)","internal temp (C)","react chamber temp (C)","sample flow (l/min)","pres (mmHg)","SO2 bkg (ppb)","SO2 coefficient"
2015-08-15 00:00:00,1615E-3,5C000000,-0724,0821,12233,025.9,045.4,0.481,741.7,01.18,0.508
2015-08-15 00:01:00,1593E-3,5C000000,-0724,0822,12272,025.9,045.4,0.481,741.7,01.18,0.508
2015-08-15 00:02:00,1584E-3,5C000000,-0724,0821,12333,025.9,045.4,0.481,741.7,01.18,0.508
2015-08-15 00:03:00,1543E-3,5C000000,-0724,0822,12299,025.9,045.4,0.481,741.6,01.18,0.508
2015-08-15 00:04:00,1559E-3,5C000000,-0724,0821,12223,025.9,045.4,0.481,741.7,01.18,0.508
2015-08-15 00:05:00,1797E-3,5C000000,-0724,0821,12299,025.9,045.4,0.481,741.7,01.18,0.508
2015-08-15 00:06:00,1747E-3,5C000000,-0724,0822,12252,025.9,045.4,0.481,741.7,01.18,0.508
2015-08-15 00:07:00,1561E-3,5C000000,-0724,0821,12290,025.9,045.4,0.481,741.7,01.18,0.508
2015-08-15 00:08:00,1594E-3,5C000000,-0724,0821,12333,025.9,045.4,0.481,741.7,01.18,0.508
2015-08-15 00:09:00,1616E-3,5C000000,-0724,0821,12260,025.9,045.4,0.481,741.6,01.18,0.508
2015-08-15 00:10:00,1626E-3,5C000000,-0724,0822,12299,025.9,045.4,0.481,741.6,01.18,0.508
2015-08-15 00:11:00,1635E-3,5C000000,-0724,0822,12325,025.9,045.4,0.481,741.6,01.18,0.508
2015-08-15 00:12:00,1578E-3,5C000000,-0724,0821,12250,025.9,045.4,0.481,741.6,01.18,0.508
2015-08-15 00:13:00,1628E-3,5C000000,-0724,0821,12259,025.9,045.4,0.481,741.7,01.18,0.508
2015-08-15 00:14:00,1607E-3,5C000000,-0724,0821,12251,025.9,045.4,0.481,741.7,01.18,0.508
2015-08-15 00:15:00,1691E-3,5C000000,-0724,0822,12355,025.9,045.4,0.481,741.7,01.18,0.508
2015-08-15 00:16:00,1638E-3,5C000000,-0724,0821,12153,025.9,045.4,0.481,741.7,01.18,0.508
2015-08-15 00:17:00,1597E-3,5C000000,-0724,0821,12195,025.9,045.4,0.481,741.7,01.18,0.508
2015-08-15 00:18:00,1661E-3,5C000000,-0724,0821,12171,025.9,045.4,0.481,741.7,01.18,0.508
2015-08-15 00:19:00,1722E-3,5C000000,-0724,0820,12243,025.9,045.4,0.481,741.7,01.18,0.508
2015-08-15 00:20:00,1608E-3,5C000000,-0724,0821,12219,025.9,045.4,0.481,741.7,01.18,0.508
2015-08-15 00:21:00,1676E-3,5C000000,-0724,0821,12387,025.9,045.4,0.481,741.7,01.18,0.508
2015-08-15 00:22:00,1594E-3,5C000000,-0724,0822,12331,025.9,045.4,0.481,741.7,01.18,0.508
2015-08-15 00:23:00,1665E-3,5C000000,-0724,0821,12256,025.9,045.4,0.481,741.7,01.18,0.508
2015-08-15 00:24:00,1631E-3,5C000000,-0724,0822,12344,025.9,045.4,0.481,741.7,01.18,0.508
2015-08-15 00:25:00,1678E-3,5C000000,-0724,0821,12289,025.9,045.4,0.481,741.7,01.18,0.508
2015-08-15 00:26:00,1590E-3,5C000000,-0724,0821,12216,025.9,045.4,0.480,741.7,01.18,0.508
2015-08-15 00:27:00,1572E-3,5C000000,-0724,0822,12409,025.9,045.4,0.481,741.7,01.18,0.508
2015-08-15 00:28:00,1647E-3,5C000000,-0724,0822,12301,025.9,045.4,0.481,741.7,01.18,0.508
2015-08-15 00:29:00,1483E-3,5C000000,-0724,0822,12423,025.9,045.4,0.481,741.7,01.18,0.508
2015-08-15 00:30:00,1638E-3,5C000000,-0724,0821,12273,025.9,045.4,0.481,741.7,01.18,0.508
2015-08-15 00:31:00,1484E-3,5C000000,-0724,0821,12283,025.9,045.4,0.481,741.7,01.18,0.508
2015-08-15 00:32:00,1648E-3,5C000000,-0724,0821,12268,025.9,045.4,0.481,741.7,01.18,0.508
2015-08-15 00:33:00,1685E-3,5C000000,-0724,0821,12222,025.9,045.4,0.481,741.7,01.18,0.508
2015-08-15 00:34:00,1618E-3,5C000000,-0724,0821,12234,025.9,045.4,0.481,741.7,01.18,0.508
2015-08-15 00:35:00,1446E-3,5C000000,-0724,0821,12469,025.9,045.4,0.481,741.7,01.18,0.508
2015-08-15 00:36:00,1732E-3,5C000000,-0724,0822,12352,025.9,045.4,0.480,741.6,01.18,0.508
2015-08-15 00:37:00,1606E-3,5C000000,-0724,0822,12302,025.9,045.4,0.481,741.6,01.18,0.508
2015-08-15 00:38:00,1601E-3,5C000000,-0724,0821,12114,025.9,045.4,0.481,741.6,01.18,0.508
2015-08-15 00:39:00,1715E-3,5C000000,-0724,0822,12251,025.9,045.4,0.481,741.7,01.18,0.508
2015-08-15 00:40:00,1603E-3,5C000000,-0724,0822,12253,025.9,045.4,0.481,741.6,01.18,0.508
2015-08-15 00:41:00,1574E-3,5C000000,-0724,0821,12123,025.9,045.4,0.481,741.6,01.18,0.508
2015-08-15 00:42:00,1659E-3,5C000000,-0724,0822,12291,025.9,045.4,0.481,741.6,01.18,0.508
2015-08-15 00:43:00,1668E-3,5C000000,-0724,0821,12273,025.9,045.4,0.481,741.6,01.18,0.508
2015-08-15 00:44:00,1616E-3,5C000000,-0724,0821,12221,025.9,045.4,0.481,741.6,01.18,0.508
2015-08-15 00:45:00,1630E-3,5C000000,-0724,0821,12096,025.9,045.4,0.481,741.6,01.18,0.508
2015-08-15 00:46:00,1614E-3,5C000000,-0724,0821,12365,025.9,045.4,0.481,741.7,01.18,0.508
2015-08-15 00:47:00,1603E-3,5C000000,-0724,0822,12363,025.9,045.4,0.481,741.7,01.18,0.508
2015-08-15 00:48:00,1584E-3,5C000000,-0724,0821,12214,025.9,045.4,0.481,741.7,01.18,0.508
2015-08-15 00:49:00,1575E-3,5C000000,-0724,0821,12181,025.9,045.4,0.481,741.7,01.18,0.508
2015-08-15 00:50:00,1589E-3,5C000000,-0724,0821,12232,025.9,045.4,0.481,741.7,01.18,0.508
2015-08-15 00:51:00,1562E-3,5C000000,-0724,0821,12183,025.9,045.4,0.481,741.7,01.18,0.508
2015-08-15 00:52:00,1552E-3,5C000000,-0724,0821,12245,025.9,045.4,0.480,741.7,01.18,0.508
2015-08-15 00:53:00,1491E-3,5C000000,-0724,0822,12330,025.9,045.4,0.481,741.7,01.18,0.508
2015-08-15 00:54:00,1774E-3,5C000000,-0724,0821,12464,025.9,045.4,0.481,741.7,01.18,0.508
2015-08-15 00:55:00,1588E-3,5C000000,-0724,0821,12247,025.9,045.4,0.481,741.7,01.18,0.508
2015-08-15 00:56:00,1667E-3,5C000000,-0724,0821,12258,025.9,045.4,0.481,741.7,01.18,0.508
2015-08-15 00:57:00,1692E-3,5C000000,-0724,0822,12361,025.9,045.4,0.481,741.7,01.18,0.508
2015-08-15 00:58:00,1723E-3,5C000000,-0724,0821,12122,025.9,045.4,0.481,741.7,01.18,0.508
2015-08-15 00:59:00,1695E-3,5C000000,-0724,0822,12205,025.9,045.4,0.481,741.7,01.18,0.508
2015-08-15 01:00:00,1618E-3,5C000000,-0724,0821,12329,025.9,045.4,0.481,741.7,01.18,0.508
2015-08-15 01:01:00,1666E-3,5C000000,-0724,0822,12183,025.9,045.4,0.481,741.7,01.18,0.508
2015-08-15 01:02:00,1508E-3,5C000000,-0724,0821,12205,025.9,045.4,0.480,741.7,01.18,0.508
2015-08-15 01:03:00,1637E-3,5C000000,-0724,0821,12117,025.9,045.4,0.481,741.7,01.18,0.508
2015-08-15 01:04:00,1621E-3,5C000000,-0724,0822,12389,026.0,045.4,0.481,741.7,01.18,0.508
2015-08-15 01:05:00,1662E-3,5C000000,-0724,0821,12230,026.0,045.4,0.480,741.7,01.18,0.508
2015-08-15 01:06:00,1640E-3,5C000000,-0724,0821,12397,025.9,045.4,0.481,741.7,01.18,0.508
2015-08-15 01:07:00,1570E-3,5C000000,-0724,0822,12238,026.0,045.4,0.481,741.7,01.18,0.508
2015-08-15 01:08:00,1709E-3,5C000000,-0724,0821,12167,025.9,045.4,0.480,741.7,01.18,0.508
2015-08-15 01:09:00,1632E-3,5C000000,-0724,0821,12354,026.0,045.4,0.481,741.7,01.18,0.508
2015-08-15 01:10:00,1671E-3,5C000000,-0724,0821,12189,026.0,045.4,0.481,741.7,01.18,0.508
2015-08-15 01:11:00,1730E-3,5C000000,-0724,0822,12260,026.0,045.4,0.481,741.7,01.18,0.508
2015-08-15 01:12:00,1616E-3,5C000000,-0724,0822,12113,026.0,045.4,0.481,741.7,01.18,0.508
2015-08-15 01:13:00,1625E-3,5C000000,-0724,0821,12410,026.0,045.4,0.481,741.7,01.18,0.508
2015-08-15 01:14:00,1606E-3,5C000000,-0724,0822,12256,026.0,045.4,0.481,741.7,01.18,0.508
2015-08-15 01:15:00,1637E-3,5C000000,-0724,0821,12138,026.0,045.4,0.481,741.7,01.18,0.508
2015-08-15 01:16:00,1737E-3,5C000000,-0724,0821,12376,026.0,045.4,0.481,741.7,01.18,0.508
2015-08-15 01:17:00,1485E-3,5C000000,-0724,0821,12321,026.0,045.4,0.481,741.7,01.18,0.508
2015-08-15 01:18:00,1695E-3,5C000000,-0724,0822,12279,026.0,045.4,0.481,741.7,01.18,0.508
2015-08-15 01:19:00,1712E-3,5C000000,-0724,0821,12283,026.0,045.4,0.481,741.7,01.18,0.508
2015-08-15 01:20:00,1672E-3,5C000000,-0724,0822,12305,026.0,045.4,0.481,741.7,01.18,0.508
2015-08-15 01:21:00,1657E-3,5C000000,-0724,0823,12349,026.0,045.4,0.480,741.7,01.18,0.508
2015-08-15 01:22:00,1665E-3,5C000000,-0724,0821,12142,026.0,045.4,0.481,741.7,01.18,0.508
2015-08-15 01:23:00,1562E-3,5C000000,-0724,0821,12346,026.0,045.4,0.481,741.7,01.18,0.508
2015-08-15 01:24:00,1674E-3,5C000000,-0724,0822,12256,026.0,045.4,0.480,741.7,01.18,0.508
2015-08-15 01:25:00,1699E-3,5C000000,-0724,0822,12238,026.0,045.4,0.481,741.7,01.18,0.508
2015-08-15 01:26:00,1569E-3,5C000000,-0724,0821,12181,026.0,045.4,0.481,741.7,01.18,0.508
2015-08-15 01:27:00,1622E-3,5C000000,-0724,0821,12180,026.0,045.4,0.481,741.7,01.18,0.508
2015-08-15 01:28:00,1636E-3,5C000000,-0724,0821,12254,026.0,045.4,0.481,741.7,01.18,0.508
2015-08-15 01:29:00,1623E-3,5C000000,-0724,0821,12311,026.0,045.4,0.481,741.7,01.18,0.508
2015-08-15 01:30:00,1538E-3,5C000000,-0724,0821,12202,026.0,045.4,0.481,741.7,01.18,0.508
2015-08-15 01:31:00,1671E-3,5C000000,-0724,0822,12071,026.0,045.4,0.480,741.7,01.18,0.508
2015-08-15 01:32:00,1671E-3,5C000000,-0724,0822,12290,026.0,045.4,0.481,741.7,01.18,0.508
2015-08-15 01:33:00,1713E-3,5C000000,-0724,0821,12380,026.0,045.4,0.481,741.7,01.18,0.508
2015-08-15 01:34:00,1691E-3,5C000000,-0724,0821,12204,026.0,045.4,0.480,741.7,01.18,0.508
2015-08-15 01:35:00,1586E-3,5C000000,-0724,0822,12169,026.0,045.4,0.481,741.7,01.18,0.508
2015-08-15 01:36:00,1559E-3,5C000000,-0724,0822,12274,026.0,045.4,0.481,741.7,01.18,0.508
2015-08-15 01:37:00,1653E-3,5C000000,-0724,0822,12375,026.0,045.4,0.480,741.7,01.18,0.508
2015-08-15 01:38:00,1737E-3,5C000000,-0724,0820,12226,026.0,045.4,0.481,741.7,01.18,0.508
2015-08-15 01:39:00,1690E-3,5C000000,-0724,0822,12293,026.0,045.4,0.481,741.7,01.18,0.508
2015-08-15 01:40:00,1655E-3,5C000000,-0724,0821,12351,026.0,045.4,0.480,741.7,01.18,0.508
2015-08-15 01:41:00,1722E-3,5C000000,-0724,0821,12416,026.0,045.4,0.481,741.7,01.18,0.508
2015-08-15 01:42:00,1588E-3,5C000000,-0724,0823,12291,026.0,045.4,0.481,741.7,01.18,0.508
2015-08-15 01:43:00,1663E-3,5C000000,-0724,0821,12260,026.0,045.4,0.481,741.7,01.18,0.508
2015-08-15 01:44:00,1617E-3,5C000000,-0724,0822,12345,026.0,045.4,0.480,741.7,01.18,0.508
2015-08-15 01:45:00,1571E-3,5C000000,-0724,0822,12284,026.0,045.4,0.481,741.7,01.18,0.508
2015-08-15 01:46:00,1514E-3,5C000000,-0724,0821,12290,026.0,045.4,0.481,741.7,01.18,0.508
2015-08-15 01:47:00,1665E-3,5C000000,-0724,0822,12371,026.0,045.4,0.480,741.7,01.18,0.508
2015-08-15 01:48:00,1793E-3,5C000000,-0724,0821,12409,026.1,045.4,0.481,741.7,01.18,0.508
2015-08-15 01:49:00,1647E-3,5C000000,-0724,0822,12271,026.0,045.4,0.481,741.7,01.18,0.508
2015-08-15 01:50:00,1711E-3,5C000000,-0724,0822,12324,026.0,045.4,0.480,741.7,01.18,0.508
2015-08-15 01:51:00,1613E-3,5C000000,-0724,0821,12188,026.0,045.4,0.481,741.7,01.18,0.508
2015-08-15 01:52:00,1535E-3,5C000000,-0724,0822,12341,026.1,045.4,0.481,741.7,01.18,0.508
2015-08-15 01:53:00,1670E-3,5C000000,-0724,0821,12075,026.0,045.4,0.480,741.7,01.18,0.508
2015-08-15 01:54:00,1706E-3,5C000000,-0724,0822,12186,026.0,045.4,0.481,741.7,01.18,0.508
2015-08-15 01:55:00,1634E-3,5C000000,-0724,0821,12377,026.1,045.4,0.481,741.7,01.18,0.508
2015-08-15 01:56:00,1626E-3,5C000000,-0724,0821,12335,026.0,045.4,0.480,741.7,01.18,0.508
2015-08-15 01:57:00,1635E-3,5C000000,-0724,0821,12172,026.1,045.4,0.481,741.7,01.18,0.508
2015-08-15 01:58:00,1612E-3,5C000000,-0724,0822,12303,026.1,045.4,0.481,741.7,01.18,0.508
2015-08-15 01:59:00,1689E-3,5C000000,-0724,0821,12312,026.1,045.4,0.480,741.7,01.18,0.508
2015-08-15 02:00:00,1725E-3,5C000000,-0724,0821,12173,026.1,045.4,0.481,741.7,01.18,0.508
2015-08-15 02:01:00,1687E-3,5C000000,-0724,0821,12140,026.1,045.4,0.481,741.7,01.18,0.508
2015-08-15 02:02:00,1584E-3,5C000000,-0724,0822,12258,026.1,045.4,0.480,741.7,01.18,0.508
2015-08-15 02:03:00,1710E-3,5C000000,-0724,0821,12355,026.1,045.4,0.481,741.7,01.18,0.508
2015-08-15 02:04:00,1477E-3,5C000000,-0724,0822,12144,026.1,045.4,0.481,741.7,01.18,0.508
2015-08-15 02:05:00,1589E-3,5C000000,-0724,0821,12174,026.1,045.4,0.480,741.7,01.18,0.508
2015-08-15 02:06:00,1691E-3,5C000000,-0724,0821,12279,026.1,045.4,0.481,741.7,01.18,0.508
2015-08-15 02:07:00,1604E-3,5C000000,-0724,0822,12386,026.1,045.4,0.481,741.7,01.18,0.508
2015-08-15 02:08:00,1613E-3,5C000000,-0724,0821,12381,026.1,045.4,0.480,741.7,01.18,0.508
2015-08-15 02:09:00,1634E-3,5C000000,-0724,0821,12247,026.1,045.4,0.481,741.7,01.18,0.508
2015-08-15 02:10:00,1658E-3,5C000000,-0724,0822,12340,026.1,045.4,0.481,741.7,01.18,0.508
2015-08-15 02:11:00,1701E-3,5C000000,-0724,0821,12309,026.1,045.4,0.480,741.7,01.18,0.508
2015-08-15 02:12:00,1683E-3,5C000000,-0724,0822,12321,026.1,045.4,0.481,741.7,01.18,0.508
2015-08-15 02:13:00,1683E-3,5C000000,-0724,0822,12251,026.1,045.4,0.480,741.7,01.18,0.508
2015-08-15 02:14:00,1489E-3,5C000000,-0724,0822,12355,026.1,045.4,0.480,741.7,01.18,0.508
2015-08-15 02:15:00,1576E-3,5C000000,-0724,0822,12374,026.1,045.4,0.481,741.7,01.18,0.508
2015-08-15 02:16:00,1537E-3,5C000000,-0724,0822,12212,026.1,045.4,0.480,741.7,01.18,0.508
2015-08-15 02:17:00,1715E-3,5C000000,-0724,0822,12226,026.1,045.4,0.480,741.7,01.18,0.508
2015-08-15 02:18:00,1651E-3,5C000000,-0724,0822,12248,026.1,045.4,0.481,741.7,01.18,0.508
2015-08-15 02:19:00,1576E-3,5C000000,-0724,0822,12296,026.1,045.4,0.480,741.8,01.18,0.508
2015-08-15 02:20:00,1672E-3,5C000000,-0724,0822,12261,026.1,045.4,0.481,741.7,01.18,0.508
2015-08-15 02:21:00,1597E-3,5C000000,-0724,0822,12250,026.1,045.4,0.481,741.7,01.18,0.508
2015-08-15 02:22:00,1653E-3,5C000000,-0724,0822,12425,026.1,045.4,0.480,741.7,01.18,0.508
2015-08-15 02:23:00,1685E-3,5C000000,-0724,0821,12310,026.1,045.4,0.481,741.7,01.18,0.508
2015-08-15 02:24:00,1726E-3,5C000000,-0724,0821,12201,026.1,045.4,0.481,741.7,01.18,0.508
2015-08-15 02:25:00,1719E-3,5C000000,-0724,0822,12348,026.1,045.4,0.480,741.7,01.18,0.508
2015-08-15 02:26:00,1625E-3,5C000000,-0724,0821,12378,026.1,045.4,0.481,741.7,01.18,0.508
2015-08-15 02:27:00,1741E-3,5C000000,-0724,0822,12174,026.1,045.4,0.481,741.7,01.18,0.508
2015-08-15 02:28:00,1601E-3,5C000000,-0724,0822,12308,026.1,045.4,0.480,741.7,01.18,0.508
2015-08-15 02:29:00,1670E-3,5C000000,-0724,0822,12235,026.2,045.4,0.481,741.7,01.18,0.508
2015-08-15 02:30:00,1706E-3,5C000000,-0724,0821,12422,026.2,045.4,0.481,741.7,01.18,0.508
2015-08-15 02:31:00,1627E-3,5C000000,-0724,0822,12467,026.1,045.4,0.480,741.8,01.18,0.508
2015-08-15 02:32:00,1487E-3,5C000000,-0724,0822,12247,026.2,045.4,0.481,741.7,01.18,0.508
2015-08-15 02:33:00,1503E-3,5C000000,-0724,0821,12328,026.2,045.4,0.480,741.7,01.18,0.508
2015-08-15 02:34:00,1635E-3,5C000000,-0724,0822,12245,026.2,045.4,0.480,741.7,01.18,0.508
2015-08-15 02:35:00,1554E-3,5C000000,-0724,0822,12213,026.2,045.4,0.481,741.7,01.18,0.508
2015-08-15 02:36:00,1735E-3,5C000000,-0724,0822,12244,026.2,045.4,0.480,741.7,01.18,0.508
2015-08-15 02:37:00,1693E-3,5C000000,-0724,0822,12222,026.2,045.4,0.480,741.7,01.18,0.508
2015-08-15 02:38:00,1676E-3,5C000000,-0724,0822,12211,026.2,045.4,0.481,741.7,01.18,0.508
2015-08-15 02:39:00,1635E-3,5C000000,-0724,0822,12295,026.2,045.4,0.480,741.7,01.18,0.508
2015-08-15 02:40:00,1567E-3,5C000000,-0724,0822,12278,026.2,045.4,0.480,741.7,01.18,0.508
2015-08-15 02:41:00,1642E-3,5C000000,-0724,0822,12197,026.2,045.4,0.481,741.7,01.18,0.508
2015-08-15 02:42:00,1623E-3,5C000000,-0724,0822,12295,026.2,045.4,0.480,741.7,01.18,0.508
2015-08-15 02:43:00,1703E-3,5C000000,-0724,0821,12373,026.2,045.4,0.480,741.7,01.18,0.508
2015-08-15 02:44:00,1676E-3,5C000000,-0724,0821,12251,026.2,045.4,0.481,741.7,01.18,0.508
2015-08-15 02:45:00,1544E-3,5C000000,-0724,0821,12131,026.2,045.4,0.481,741.7,01.18,0.508
2015-08-15 02:46:00,1576E-3,5C000000,-0724,0822,12199,026.2,045.4,0.480,741.7,01.18,0.508
2015-08-15 02:47:00,1665E-3,5C000000,-0724,0821,12284,026.2,045.4,0.481,741.7,01.18,0.508
2015-08-15 02:48:00,1547E-3,5C000000,-0724,0822,12162,026.2,045.4,0.481,741.7,01.18,0.508
2015-08-15 02:49:00,1598E-3,5C000000,-0724,0822,12318,026.2,045.4,0.480,741.7,01.18,0.508
2015-08-15 02:50:00,1596E-3,5C000000,-0724,0821,12383,026.2,045.4,0.481,741.7,01.18,0.508
2015-08-15 02:51:00,1561E-3,5C000000,-0724,0822,12237,026.2,045.4,0.481,741.7,01.18,0.508
2015-08-15 02:52:00,1570E-3,5C000000,-0724,0821,12332,026.2,045.4,0.480,741.7,01.18,0.508
2015-08-15 02:53:00,1671E-3,5C000000,-0724,0822,12175,026.2,045.4,0.481,741.7,01.18,0.508
2015-08-15 02:54:00,1686E-3,5C000000,-0724,0821,12310,026.2,045.4,0.481,741.7,01.18,0.508
2015-08-15 02:55:00,1488E-3,5C000000,-0724,0822,12271,026.2,045.4,0.480,741.7,01.18,0.508
2015-08-15 02:56:00,1609E-3,5C000000,-0724,0822,12212,026.2,045.4,0.481,741.7,01.18,0.508
2015-08-15 02:57:00,1681E-3,5C000000,-0724,0822,12190,026.2,045.4,0.481,741.7,01.18,0.508
2015-08-15 02:58:00,1719E-3,5C000000,-0724,0822,12207,026.2,045.4,0.480,741.7,01.18,0.508
2015-08-15 02:59:00,1629E-3,5C000000,-0724,0821,12312,026.2,045.4,0.481,741.7,01.18,0.508
2015-08-15 03:00:00,1552E-3,5C000000,-0724,0821,12244,026.2,045.4,0.481,741.7,01.18,0.508
2015-08-15 03:01:00,1809E-3,5C000000,-0724,0822,12416,026.2,045.4,0.480,741.7,01.18,0.508
2015-08-15 03:02:00,1625E-3,5C000000,-0724,0822,12289,026.2,045.4,0.480,741.7,01.18,0.508
2015-08-15 03:03:00,1623E-3,5C000000,-0724,0822,12311,026.3,045.4,0.481,741.7,01.18,0.508
2015-08-15 03:04:00,1533E-3,5C000000,-0724,0821,12276,026.2,045.4,0.480,741.7,01.18,0.508
2015-08-15 03:05:00,1625E-3,5C000000,-0724,0822,12219,026.2,045.4,0.480,741.7,01.18,0.508
2015-08-15 03:06:00,1702E-3,5C000000,-0724,0821,12216,026.3,045.4,0.481,741.7,01.18,0.508
2015-08-15 03:07:00,1500E-3,5C000000,-0724,0822,12197,026.3,045.4,0.480,741.7,01.18,0.508
2015-08-15 03:08:00,1704E-3,5C000000,-0724,0821,12272,026.2,045.4,0.480,741.7,01.18,0.508
2015-08-15 03:09:00,1592E-3,5C000000,-0724,0822,12242,026.3,045.4,0.481,741.7,01.18,0.508
2015-08-15 03:10:00,1733E-3,5C000000,-0724,0823,12259,026.3,045.4,0.481,741.7,01.18,0.508
2015-08-15 03:11:00,1573E-3,5C000000,-0724,0822,12248,026.3,045.4,0.480,741.7,01.18,0.508
2015-08-15 03:12:00,1588E-3,5C000000,-0724,0821,12325,026.3,045.4,0.480,741.7,01.18,0.508
2015-08-15 03:13:00,1558E-3,5C000000,-0724,0822,12144,026.3,045.4,0.481,741.7,01.18,0.508
2015-08-15 03:14:00,1528E-3,5C000000,-0724,0822,12267,026.3,045.4,0.480,741.7,01.18,0.508
2015-08-15 03:15:00,1704E-3,5C000000,-0724,0821,12314,026.3,045.4,0.480,741.7,01.18,0.508
2015-08-15 03:16:00,1576E-3,5C000000,-0724,0822,12336,026.3,045.4,0.481,741.7,01.18,0.508
2015-08-15 03:17:00,1588E-3,5C000000,-0724,0822,12270,026.3,045.4,0.480,741.7,01.18,0.508
2015-08-15 03:18:00,1510E-3,5C000000,-0724,0821,12260,026.3,045.4,0.480,741.7,01.18,0.508
2015-08-15 03:19:00,1587E-3,5C000000,-0724,0822,12368,026.3,045.4,0.481,741.7,01.18,0.508
2015-08-15 03:20:00,1535E-3,5C000000,-0724,0822,12115,026.3,045.4,0.480,741.8,01.18,0.508
2015-08-15 03:21:00,1499E-3,5C000000,-0724,0821,12139,026.3,045.4,0.480,741.7,01.18,0.508
"read_dt","SO2 (ppb)","flags","PMT voltage (V)","lamp voltage (V)","lamp intensity (Hz)","internal temp (C)","react chamber temp (C)","sample flow (l/min)","pres (mmHg)","SO2 bkg (ppb)","SO2 coefficient"
2015-08-15 03:43:02,9661E-4,5C000004,-0724,0804,12040,026.9,039.6,0.482,742.0,01.18,0.508
2015-08-15 03:44:00,1786E-3,5C000004,-0724,0819,12278,027.0,040.0,0.481,741.8,01.18,0.508
2015-08-15 03:45:00,1712E-3,5C000004,-0724,0819,12327,027.2,040.6,0.481,741.8,01.18,0.508
2015-08-15 03:46:00,1702E-3,5C000004,-0724,0820,12378,027.3,041.4,0.481,741.8,01.18,0.508
2015-08-15 03:47:00,1705E-3,5C000004,-0724,0820,12453,027.5,042.2,0.480,741.8,01.18,0.508
2015-08-15 03:48:00,1716E-3,5C000004,-0724,0821,12291,027.7,043.0,0.480,741.8,01.18,0.508
2015-08-15 03:49:00,1703E-3,5C000000,-0724,0821,12393,027.8,043.7,0.480,741.7,01.18,0.508
2015-08-15 03:50:00,1782E-3,5C000000,-0724,0821,12240,028.0,044.5,0.479,741.7,01.18,0.508
2015-08-15 03:51:00,1579E-3,5C000000,-0724,0822,12202,028.2,045.2,0.479,741.6,01.18,0.508
2015-08-15 03:52:00,1633E-3,5C000000,-0724,0821,12259,028.3,045.6,0.478,741.6,01.18,0.508
2015-08-15 03:53:00,1656E-3,5C000000,-0724,0822,12409,028.5,045.6,0.478,741.6,01.18,0.508
2015-08-15 03:54:00,1575E-3,5C000000,-0724,0822,12194,028.6,045.5,0.478,741.6,01.18,0.508
2015-08-15 03:55:00,1740E-3,5C000000,-0724,0823,12206,028.7,045.5,0.478,741.6,01.18,0.508
2015-08-15 03:56:00,1687E-3,5C000000,-0724,0822,12351,028.8,045.5,0.478,741.7,01.18,0.508
2015-08-15 03:57:00,1618E-3,5C000000,-0724,0822,12303,028.9,045.5,0.477,741.7,01.18,0.508
2015-08-15 03:58:00,1557E-3,5C000000,-0724,0822,12146,028.9,045.5,0.477,741.7,01.18,0.508
2015-08-15 03:59:00,1717E-3,5C000000,-0724,0822,12225,029.0,045.5,0.476,741.7,01.18,0.508
2015-08-15 04:00:00,1542E-3,5C000000,-0724,0823,12107,029.0,045.5,0.476,741.6,01.18,0.508
2015-08-15 04:01:00,1678E-3,5C000000,-0724,0822,12283,029.0,045.5,0.477,741.6,01.18,0.508
2015-08-15 04:02:00,1570E-3,5C000000,-0724,0822,12321,029.0,045.5,0.476,741.7,01.18,0.508
2015-08-15 04:03:00,1562E-3,5C000000,-0724,0821,12226,029.0,045.5,0.477,741.6,01.18,0.508
2015-08-15 04:04:00,1679E-3,5C000000,-0724,0822,12236,029.0,045.5,0.476,741.6,01.18,0.508
2015-08-15 04:05:00,1607E-3,5C000000,-0724,0822,12259,028.9,045.5,0.476,741.6,01.18,0.508
2015-08-15 04:06:00,1700E-3,5C000000,-0724,0822,12333,028.9,045.5,0.476,741.6,01.18,0.508
2015-08-15 04:07:00,1563E-3,5C000000,-0724,0822,12361,028.8,045.5,0.476,741.6,01.18,0.508
2015-08-15 04:08:00,1580E-3,5C000000,-0724,0821,12300,028.8,045.5,0.476,741.7,01.18,0.508
2015-08-15 04:09:00,1651E-3,5C000000,-0724,0822,12191,028.7,045.5,0.476,741.6,01.18,0.508
2015-08-15 04:10:00,1589E-3,5C000000,-0724,0821,12169,028.6,045.5,0.476,741.6,01.18,0.508
2015-08-15 04:11:00,1574E-3,5C000000,-0724,0821,12193,028.5,045.5,0.476,741.6,01.18,0.508
2015-08-15 04:12:00,1602E-3,5C000000,-0724,0822,12287,028.4,045.5,0.476,741.6,01.18,0.508
2015-08-15 04:13:00,1660E-3,5C000000,-0724,0822,12277,028.3,045.5,0.476,741.6,01.18,0.508
2015-08-15 04:14:00,1566E-3,5C000000,-0724,0822,12340,028.3,045.5,0.477,741.6,01.18,0.508
2015-08-15 04:15:00,1605E-3,5C000000,-0724,0822,12133,028.2,045.5,0.477,741.7,01.18,0.508
2015-08-15 04:16:00,1603E-3,5C000000,-0724,0821,12215,028.1,045.5,0.477,741.6,01.18,0.508
2015-08-15 04:17:00,1586E-3,5C000000,-0724,0822,12424,028.0,045.5,0.478,741.6,01.18,0.508
2015-08-15 04:18:00,1766E-3,5C000000,-0724,0822,12305,028.0,045.5,0.477,741.6,01.18,0.508
2015-08-15 04:19:00,1783E-3,5C000000,-0724,0822,12370,027.9,045.5,0.477,741.6,01.18,0.508
2015-08-15 04:20:00,1577E-3,5C000000,-0724,0822,12301,027.9,045.5,0.477,741.6,01.18,0.508
2015-08-15 04:21:00,1666E-3,5C000000,-0724,0821,12314,027.8,045.5,0.478,741.6,01.18,0.508
2015-08-15 04:22:00,1580E-3,5C000000,-0724,0822,12301,027.7,045.5,0.478,741.6,01.18,0.508
2015-08-15 04:23:00,1661E-3,5C000000,-0724,0822,12313,027.7,045.5,0.478,741.6,01.18,0.508
2015-08-15 04:24:00,1623E-3,5C000000,-0724,0822,12226,027.6,045.5,0.478,741.6,01.18,0.508
2015-08-15 04:25:00,1749E-3,5C000000,-0724,0821,12201,027.6,045.5,0.479,741.6,01.18,0.508
2015-08-15 04:26:00,1677E-3,5C000000,-0724,0822,12259,027.5,045.4,0.479,741.6,01.18,0.508
2015-08-15 04:27:00,1604E-3,5C000000,-0724,0821,12361,027.5,045.4,0.479,741.6,01.18,0.508
2015-08-15 04:28:00,1511E-3,5C000000,-0724,0821,12380,027.4,045.4,0.478,741.6,01.18,0.508
2015-08-15 04:29:00,1569E-3,5C000000,-0724,0821,12164,027.4,045.4,0.478,741.6,01.18,0.508
2015-08-15 04:30:00,1698E-3,5C000000,-0724,0822,12267,027.4,045.5,0.478,741.6,01.18,0.508
2015-08-15 04:31:00,1702E-3,5C000000,-0724,0822,12293,027.3,045.4,0.479,741.6,01.18,0.508
2015-08-15 04:32:00,1562E-3,5C000000,-0724,0821,12134,027.3,045.4,0.479,741.6,01.18,0.508
2015-08-15 04:33:00,1517E-3,5C000000,-0724,0822,12275,027.2,045.4,0.479,741.7,01.18,0.508
2015-08-15 04:34:00,1593E-3,5C000000,-0724,0821,12314,027.2,045.4,0.479,741.7,01.18,0.508
2015-08-15 04:35:00,1786E-3,5C000000,-0724,0822,12222,027.2,045.4,0.479,741.7,01.18,0.508
2015-08-15 04:36:00,1655E-3,5C000000,-0724,0822,12343,027.2,045.4,0.479,741.7,01.18,0.508
2015-08-15 04:37:00,1499E-3,5C000000,-0724,0821,12345,027.2,045.4,0.479,741.7,01.18,0.508
2015-08-15 04:38:00,1741E-3,5C000000,-0724,0822,12247,027.1,045.5,0.479,741.7,01.18,0.508
2015-08-15 04:39:00,1688E-3,5C000000,-0724,0821,12265,027.1,045.5,0.479,741.6,01.18,0.508